Погода в Заволжске

Россия / Ивановская область     57°29′30″N   42°08′14″E
темп.,
°C
ветер,
м/с
пор.,
м/с
влажн.,
%
обл.,
%
осадки,
мм/ч
давл.,
гПа
погр.,
м
12 мая, ср
ср1200:00+10в22862 0.0 102834
03:00+10всв22940 0.0 102813
06:00+12св25901 0.0 1029122
09:00+18в346952 0.0 1028436
12:00+22в455576 0.0 10261041
15:00+24вюв57495 0.0 10251802
18:00+22вюв496147 0.0 1024459
21:00+16юв24775 0.0 102466
13 мая, чт
чт1300:00+14ююв238397 0.0 102556
03:00+14вюв268198 0.0 1024155
06:00+14вюв398010 0.0 1024271
09:00+19вюв486093 0.0 1023775
12:00+18вюв397144 0.0 1022607
15:00+23юв61053100 0.0 10191821
18:00+17юв71374100 0.0 1018917
21:00+15юв4128893 0.6 1017505
14 мая, пт
пт1400:00+14ююв2798100 2.8 1017323
03:00+12ююв259930 2.8 1018111
06:00+13ююз379599 0.0 1019252
09:00+17юз3578100 0.0 1020709
12:00+19юз3662100 0.0 10191136
15:00+21ююз346118 0.1 10191283
18:00+20юв1270100 0.5 1018273
21:00+15вюв349072 0.6 101757
15 мая, сб
сб1500:00+14юз2596100 1.9 1017119
03:00+15вюв4896100 2.2 1015179
06:00+15вюв4996100 0.0 1014227
09:00+21ююв487894 0.0 1013492
12:00+25ююв585995 0.0 10121206
15:00+26ююв5852100 0.3 10101690
18:00+21юз4108085 1.7 1010728
21:00+17ю3139319 4.0 1011395
16 мая, вс
вс1600:00+16ю31195100 0.0 1010292
03:00+15ю39977 0.5 1010218
06:00+16ююз410932 0.0 1010403
09:00+19юз587412 0.0 1011882
12:00+21юз686392 0.5 10111649
15:00+19зюз596521 0.8 10121340
18:00+18зюз510650 0.0 10131275
21:00+13юз310880 0.0 1014288